Location: Hertford
(51.8000°N, 0.0667°W)
Time: 23:21:43
(UTC+00:00)

Lacrosse 4 Rocket - Pass Details

Date: 18 September 2020
Orbit: 543 x 615 km, 68.0° (Epoch: 30 October)

Event Time Altitude Azimuth Distance (km) Brightness Sun altitude
Rises 19:18:00 0° 325° (NW) 2,717 5.8 -11.6°
Reaches altitude 10° 19:21:45 10° 1° (N) 1,822 4.2 -12.2°
Maximum altitude 19:23:04 11° 20° (NNE) 1,737 3.9 -12.4°
Drops below altitude 10° 19:24:24 10° 39° (NE) 1,823 3.8 -12.6°
Enters shadow 19:25:49 - 56° (ENE) 2,076 3.9 -12.8°
